If you wish to contribute or participate in the discussions about articles you are invited to join SKYbrary as a registered user

 Actions

Beauvais-Tillé Airport

From SKYbrary Wiki

LFOB
Airport
ICAO: LFOB – IATA: BVA
Summary
Name Beauvais-Tillé Airport
Region Europe
Territory France FR.gif
Location Tillé, Picardie
Serving Beauvais
Elevation 109.423 m
359 ft
359 ft109.423 m
Coordinates 49° 27' 12.36" N, 2° 6' 54.66" E
Runways
Designator Length Width Surface ROPS
4/22 1105 m3,625.328 ft
30 m98.425 ft
ASP yes/yes
13/31 2430 m7,972.441 ft
45 m147.638 ft
ASP no/no
13R/31L 0 m0 ft
0 m0 ft
UNK /


METAR
Observation LFOB 231500Z AUTO 14005KT 9999 ///TCU 15/12 Q1009 BECMG NSC
Station Beauvais
Date/Time 23 October 2019 15:00:00
Wind direction 140°
Wind speed 05 kts
Lowest cloud amount nil significant cloud
Temperature 15°C
Dew point 12°C
Humidity 82%
QNH 1009 hPa
Weather condition n/a

Beauvais-Tillé Airport

ICAO: LFOB IATA: BVA

Description

Airport serving Beauvais.

Climatology

Temperate Marine climate/Oceanic climate (Köppen climate classification Cfb). Moderately cool summer and comparatively warm winter. Prevailing south-westerly winds from the Atlantic Ocean.

Maps

Terrain

Loading map...

Airport Layout

Loading map...


Accidents & Serious Incidents at or in vicinity of LFOB

None on SKYbrary